Hourly Weather Roundup
Issued by NWS Central Illinois

Home | Current Version | Previous Version | Text Only | Print | Product List | Glossary On
Versions: 1 2 3 4 5 6 7 8 9 10 11 12 13 14 15 16 17 18 19 20 21 22 23 24 25 26 27 28 29 30 31 32 33 34 35 36 37 38 39 40 41 42 43 44 45 46 47 48 49 50
000
NZUS43 KILX 201410
HWRILX

Area Weather Roundup
National Weather Service Lincoln IL
800 AM CST MON NOV 20 2017

NOTE:  "FAIR" indicates few or no clouds below 12,000 feet, with
       no sigificant weather and/or obstructions to visibility.


CITY           SKY/WX    TMP DP  RH WIND       PRES   REMARKS
Bloomington    CLOUDY    35  26  69 S18       30.03F WCI  24
Champaign      CLOUDY    33  26  75 S16       30.09R WCI  23
Danville       CLOUDY    33  23  67 S16       30.07S WCI  23
Decatur        CLOUDY    35  24  64 S15       30.08F WCI  25
Effingham      CLOUDY    34  24  68 SE7       30.16F WCI  28
Flora          CLOUDY    33  26  75 S9        30.16R WCI  26
Galesburg      CLOUDY    36  29  76 S12G17    29.95S WCI  28
Jacksonville   CLOUDY    35  25  67 S12       30.04S WCI  27
Lacon          CLOUDY    38  26  63 SW8       29.98S WCI  32
Lawrenceville  SUNNY     33  26  75 S9        30.21R WCI  25
Litchfield     CLOUDY    32  25  73 S10       30.09S WCI  24
$$


CITY           SKY/WX    TMP DP  RH WIND       PRES   REMARKS
Lincoln        CLOUDY    35  28  75 S12       30.05S WCI  26
Macomb         CLEAR     39  29  65 S17       29.98F WCI  30
Mattoon        CLOUDY    34  24  67 S15       30.11S WCI  24
Mt Carmel AP   CLOUDY    34  26  71 S8        30.20R WCI  27
Olney-Noble AP CLOUDY    32  22  66 S9        30.20R WCI  24
Paris AP       CLOUDY    34  25  70 S16       30.14R WCI  23
Peoria         CLOUDY    34  26  72 S12       30.00S WCI  25
Pontiac        MOSUNNY   37  28  71 S17       30.01S WCI  27
Rantoul        CLOUDY    36  27  70 S13G18    30.07S WCI  28
Robinson       SUNNY     31  24  72 S8        30.19R WCI  24
Springfield    CLOUDY    38  26  62 S15       30.06S WCI  29
Taylorville    CLOUDY    33  25  72 S14       30.08F WCI  23
$$

...REGIONAL REPORTS...


CITY           SKY/WX    TMP DP  RH WIND       PRES   REMARKS
Chicago O`Hare MOSUNNY   36  25  64 SW13      29.94S WCI  27
Kankakee       SUNNY     35  26  70 S13G18    30.03S WCI  26
Moline         CLOUDY    38  27  64 S7        29.90F WCI  33
Mount Sterling CLEAR     37  28  68 S9        29.99F WCI  30
Mount Vernon   CLOUDY    33  31  92 S10       30.18S WCI  25
Pittsfield     CLOUDY    40  28  60 S10       30.04R WCI  34
Quincy         CLEAR     40  28  62 S16       29.99S WCI  31
Rockford       MOCLDY    33  27  78 S10       29.92S WCI  25
$$


CITY           SKY/WX    TMP DP  RH WIND       PRES   REMARKS
Burlington     CLOUDY    39  30  70 S13       29.93F WCI  31
Cedar Rapids   CLEAR     35  28  75 S9        29.83F WCI  28
Des Moines     PTCLDY    38  28  67 S12       29.79F WCI  30
Kirksville     CLEAR     43  30  60 SW14      29.94F
Ottumwa        CLEAR     43  29  57 S18G26    29.86F WCI  35
St Louis       CLOUDY    39  23  52 S12       30.09F WCI  32
$$


CITY           SKY/WX    TMP DP  RH WIND       PRES   REMARKS
Terre Haute    CLOUDY    32  23  69 S8        30.16S WCI  25
Evansville     SUNNY     32  25  75 S7        30.25R WCI  26
Indianapolis   CLOUDY    30  22  72 S9        30.16S WCI  22
Lafayette      CLOUDY    33  23  66 SW8       30.11S WCI  26
Madison        CLOUDY    32  26  78 S10       29.82F WCI  24
Milwaukee      CLOUDY    34  26  72 SW15      29.86F WCI  24
$$






USA.gov is the U.S. government's official web portal to all federal, state and local government web resources and services.